Miscellaneous Local Product
Issued by NWS Hastings, NE

Home | Current Version | Previous Version | Text Only | Print | Product List | Glossary Off
Versions: 1 2 3 4 5 6 7 8 9 10 11 12 13 14 15 16 17 18 19 20 21 22 23 24 25 26 27 28 29 30 31 32 33 34 35 36 37 38 39 40 41 42 43 44 45 46 47 48 49 50

000
AXUS43 KGID 160402
MISGRI

GID CWA HOURLY WEATHER ROUNDUP
NATIONAL WEATHER SERVICE HASTINGS NE
1100 PM CDT MON SEP 15 2014

NOTE: "FAIR" INDICATES FEW OR NO CLOUDS BELOW 12,000 FEET WITH NO
SIGNIFICANT WEATHER AND/OR OBSTRUCTIONS TO VISIBILITY.

...SOUTH CENTRAL NEBRASKA...

CITY           SKY/WX    TMP DP  RH WIND       PRES   REMARKS
GRAND ISLAND   CLEAR     48  43  82 E6        30.27S
HASTINGS       CLEAR     50  43  77 E5        30.26F
KEARNEY        CLEAR     48  43  81 SE3       30.27S
ORD            CLEAR     44  41  89 CALM      30.25S
YORK           LGT RAIN  48  45  87 SE3       30.28R
AURORA         CLEAR     47  44  88 E5        30.27S
LEXINGTON      CLEAR     48  45  88 S5        30.27R
HOLDREGE       CLEAR     46  43  86 CALM      30.27R
HEBRON         CLEAR     46  43  90 CALM      30.27S

...NEBRASKA PANHANDLE...

CITY           SKY/WX    TMP DP  RH WIND       PRES   REMARKS
CHADRON        CLEAR     59  45  59 SW7       30.12F
ALLIANCE       CLEAR     50  44  80 S10       30.19F
SCOTTSBLUFF    PTCLDY    55  47  74 E10       30.17S
SIDNEY         CLEAR     54  46  74 S12       30.23F

...WESTERN AND NORTH CENTRAL NEBRASKA...

CITY           SKY/WX    TMP DP  RH WIND       PRES   REMARKS
VALENTINE      CLEAR     51  39  63 S7        30.20F
AINSWORTH      CLEAR     45  38  79 S7        30.22S
ONEILL         CLEAR     49  42  75 SE5       30.25S
BROKEN BOW     CLEAR     42  40  92 CALM      30.25S
IMPERIAL       CLEAR     50  44  80 SE8       30.25S
NORTH PLATTE   CLEAR     46  42  86 E6        30.25R
MCCOOK         CLEAR     52  43  71 SE6       30.27R

...EASTERN NEBRASKA...

CITY           SKY/WX    TMP DP  RH WIND       PRES   REMARKS
NORFOLK        CLEAR     44  41  89 CALM      30.26S
SO SIOUX CITY  CLEAR     44  42  93 CALM      30.26S
TEKAMAH        CLEAR     47  44  90 CALM      30.26S
ALBION         CLEAR     43  40  89 CALM      30.27S
OMAHA EPPLEY   CLEAR     50  46  86 CALM      30.27S
OFFUTT AFB     CLEAR     46  46 100 W2        30.26S
MILLARD        CLEAR     49  47  93 CALM      30.26S
LINCOLN        CLEAR     51  44  77 NW3       30.28R
NEBRASKA CITY  CLEAR     51  41  67 CALM      30.27R
BEATRICE       CLEAR     47  44  90 CALM      30.27S
FALLS CITY     CLEAR     51  46  83 N3        30.26R

...NORTHERN KANSAS...

CITY           SKY/WX    TMP DP  RH WIND       PRES   REMARKS
GOODLAND       CLEAR     53  50  89 S7        30.29S
HILL CITY      CLEAR     50  43  77 NE5       30.27R
NORTON         CLEAR     48  41  76 CALM      30.26S
PHILLIPSBURG   CLEAR     52  45  76 CALM      30.27R
SMITH CENTER   CLEAR     50  45  81 NE8       30.27S
BELOIT         CLEAR     52  46  82 NE3       30.26R
HAYS           CLEAR     54  45  71 NE9       30.27R
RUSSELL        CLEAR     54  47  77 NE8       30.25R
CONCORDIA      CLEAR     52  47  83 CALM      30.26R
SALINA         CLEAR     61  50  67 NE5       30.25R
TOPEKA         CLEAR     54  52  93 N3        30.25R



USA.gov is the U.S. government's official web portal to all federal, state and local government web resources and services.